This is the latest recevied weather packets stored in our database for station/object W4JCW. If no packets are shown the sender has not sent any weather packets the latest 10 day(s).
| Time | Temp. | Humidity | Pressure | Rain* | Wind** | Luminosity | Snow |
|---|---|---|---|---|---|---|---|
| 1778023416 | 25° C | 44% | 1012.6 hPa | 0 mm | - | 30 W/m² | - |
| 1778023112 | 25° C | 43% | 1012.4 hPa | 0 mm | - | 35 W/m² | - |
| 1778022810 | 25° C | 43% | 1012.4 hPa | 0 mm | - | 39 W/m² | - |
| 1778022508 | 25° C | 43% | 1012.5 hPa | 0 mm | - | 39 W/m² | - |
| 1778022205 | 25.56° C | 43% | 1012.5 hPa | 0 mm | - | 42 W/m² | - |
| 1778021901 | 25.56° C | 42% | 1012.4 hPa | 0 mm | - | 41 W/m² | - |
| 1778021599 | 25.56° C | 43% | 1012.3 hPa | 0 mm | - | 46 W/m² | - |
| 1778021293 | 25.56° C | 43% | 1012.5 hPa | 0 mm | - | 48 W/m² | - |
| 1778020992 | 26.11° C | 42% | 1012.3 hPa | 0 mm | - | 53 W/m² | - |
| 1778020689 | 26.11° C | 42% | 1012.3 hPa | 0 mm | - | 59 W/m² | - |
| 1778020386 | 26.11° C | 42% | 1012.3 hPa | 0 mm | - | 60 W/m² | - |
| 1778020081 | 26.67° C | 41% | 1012.2 hPa | 0 mm | - | 65 W/m² | - |
| 1778019777 | 26.67° C | 41% | 1012.5 hPa | 0 mm | - | 151 W/m² | - |
| 1778019475 | 26.67° C | 41% | 1012.3 hPa | 0 mm | - | 218 W/m² | - |
| 1778019171 | 26.67° C | 41% | 1012.6 hPa | 0 mm | - | 257 W/m² | - |
| 1778018868 | 26.67° C | 41% | 1012.7 hPa | 0 mm | - | 249 W/m² | - |
| 1778018565 | 26.67° C | 41% | 1012.6 hPa | 0 mm | - | 98 W/m² | - |
| 1778018264 | 26.67° C | 42% | 1012.6 hPa | 0 mm | - | 248 W/m² | - |
| 1778017961 | 26.67° C | 41% | 1012.6 hPa | 0 mm | - | 284 W/m² | - |
| 1778017659 | 26.67° C | 41% | 1012.5 hPa | 0 mm | - | 132 W/m² | - |
| 1778017356 | 26.67° C | 41% | 1012.6 hPa | 0 mm | - | 294 W/m² | - |
| 1778017053 | 26.67° C | 39% | 1012.6 hPa | 0 mm | - | 233 W/m² | - |
| 1778016750 | 26.67° C | 39% | 1012.5 hPa | 0 mm | - | 328 W/m² | - |
| 1778016446 | 26.67° C | 40% | 1012.8 hPa | 0 mm | - | 371 W/m² | - |
| 1778016144 | 26.67° C | 41% | 1012.9 hPa | 0 mm | - | 160 W/m² | - |
* Rain latest hour (hover to see other rain measurements)
** Current wind speed in m/s (hover to see current wind gust speed)